Meacham, OR

7:08 PM PDT on April 27, 2017 (GMT -0700)
Meacham

Weather History for KMEH - March, 2014

Change the Weather History Date:

Wednesday, March 12, 2014

  Actual Average Record
Temperature  
Mean Temperature 38 °F -  
Max Temperature 55 °F 42 °F 61 °F (1998)
Min Temperature 21 °F 22 °F -11 °F (2009)
Degree Days  
Heating Degree Days 27    
Moisture  
Dew Point 25 °F    
Average Humidity 70    
Maximum Humidity 100    
Minimum Humidity 33    
Precipitation  
Precipitation 0.00 in - - ()
Sea Level Pressure  
Sea Level Pressure 30.34 in    
Wind  
Wind Speed 0 mph (North)    
Max Wind Speed 6 mph    
Max Gust Speed -    
Visibility 10 miles    
Events      
Averages and records for this station are not official NWS values.
T = Trace of Precipitation, MM = Missing Value Source: NWS Daily Summary

Daily Weather History Graph

Daily Weather History Graph

Search for Another Location

Airport or City:

Trip Planner

Search our weather history database for the weather conditions in past years. The results will help you decide how hot, cold, wet, or windy it might be!

Date:

Astronomy

Mar. 12, 2014 Rise Set
Actual Time 7:11 AM PDT 6:55 PM PDT
Civil Twilight 6:42 AM PDT 7:25 PM PDT
Nautical Twilight 6:07 AM PDT 7:59 PM PDT
Astronomical Twilight 5:32 AM PDT 8:34 PM PDT
Moon 3:22 PM PDT (3/12) 4:55 AM PDT (3/12)
Length of Visible Light 12h 43m
Length of Day
11h 44m
Waxing Gibbous, 86% of the Moon is Illuminated
Mar 12
Waxing Gibbous
Mar 16
Full
Mar 23
Last Quarter
Mar 30
New
Apr 7
First Quarter

Hourly Weather History & Observations

Time (PDT) Temp. Windchill Dew Point Humidity Pressure Visibility Wind Dir Wind Speed Gust Speed Precip Events Conditions
12:56 AM 26.1 °F - 23.0 °F 88% 30.49 in 10.0 mi Calm Calm - N/A   Clear
1:56 AM 25.0 °F - 21.9 °F 88% 30.48 in 10.0 mi Calm Calm - N/A   Clear
2:56 AM 24.1 °F - 21.0 °F 88% 30.47 in 10.0 mi Calm Calm - N/A   Clear
3:56 AM 23.0 °F - 19.9 °F 88% 30.45 in 10.0 mi Calm Calm - N/A   Clear
4:56 AM 21.9 °F - 19.0 °F 89% 30.47 in 10.0 mi Calm Calm - N/A   Clear
5:56 AM 21.9 °F - 19.0 °F 89% 30.47 in 10.0 mi Calm Calm - N/A   Clear
6:56 AM 21.9 °F - 19.0 °F 89% 30.48 in 10.0 mi Calm Calm - N/A   Clear
7:56 AM 24.1 °F - 21.0 °F 88% 30.48 in 10.0 mi Calm Calm - N/A   Clear
8:56 AM 30.0 °F - 30.0 °F 100% 30.46 in 10.0 mi Calm Calm - N/A   Clear
9:56 AM 39.9 °F - 28.9 °F 65% 30.43 in 10.0 mi Calm Calm - N/A   Clear
10:56 AM 45.0 °F - 27.0 °F 49% 30.40 in 10.0 mi Calm Calm - N/A   Clear
11:56 AM 46.0 °F 43.1 °F 27.0 °F 47% 30.37 in 10.0 mi Variable 5.8 mph - N/A   Clear
12:56 PM 50.0 °F - 26.1 °F 39% 30.34 in 10.0 mi Calm Calm - N/A   Clear
1:56 PM 52.0 °F - 27.0 °F 38% 30.30 in 10.0 mi Variable 3.5 mph - N/A   Clear
2:56 PM 54.0 °F - 27.0 °F 35% 30.27 in 10.0 mi Calm Calm - N/A   Clear
3:56 PM 55.9 °F - 27.0 °F 33% 30.24 in 10.0 mi Variable 3.5 mph - N/A   Clear
4:56 PM 55.0 °F - 28.9 °F 37% 30.22 in 10.0 mi Calm Calm - N/A   Clear
5:56 PM 51.1 °F - 30.9 °F 46% 30.22 in 10.0 mi Calm Calm - N/A   Clear
6:56 PM 44.1 °F - 32.0 °F 63% 30.23 in 10.0 mi Calm Calm - N/A   Clear
7:56 PM 36.0 °F - 30.0 °F 79% 30.23 in 10.0 mi Calm Calm - N/A   Clear
8:56 PM 32.0 °F - 28.0 °F 85% 30.23 in 10.0 mi Calm Calm - N/A   Clear
9:56 PM 28.9 °F - 26.1 °F 89% 30.20 in 10.0 mi Calm Calm - N/A   Clear
10:56 PM 28.0 °F - 25.0 °F 88% 30.17 in 10.0 mi Calm Calm - N/A   Clear
11:56 PM 28.0 °F - 25.0 °F 88% 30.17 in 10.0 mi Calm Calm - N/A   Clear